[[[{"header":{"parameterUnit":"kt","parameterCategory":2,"dx":1,"dy":1,"la1":30.253999710083008,"la2":30.299108505249023,"lo1":-89.0895004272461,"lo2":-89.04439544677734,"nx":28,"ny":28,"refTime":"2022-10-22T21:00:00:Z","depth":0,"parameterNumber":1,"parameterNumberName":"U-component_of_WINDS"},"data":[-5.5065,-5.5228,-5.5283,-5.5495,-5.558,-5.5734,-5.5807,-5.5907,-5.6001,-5.6192,-5.6311,-5.6384,-5.65,-5.6657,-5.679,-5.6819,-5.6871,-5.6888,-5.692,-5.6792,-5.6778,-5.6765,-5.6728,-5.6899,-5.69,-5.7043,-5.7044,-5.7045,-5.4964,-5.5049,-5.5178,-5.5339,-5.545,-5.5466,-5.5596,-5.5688,-5.5826,-5.5943,-5.6064,-5.6238,-5.6382,-5.6495,-5.6643,-5.6721,-5.6737,-5.6757,-5.6751,-5.6769,-5.6635,-5.6596,-5.6741,-5.6741,-5.6741,-5.6741,-5.6741,-5.6741,-5.4795,-5.4891,-5.5021,-5.5161,-5.5258,-5.5366,-5.5468,-5.5555,-5.5682,-5.5843,-5.5885,-5.6043,-5.6171,-5.6378,-5.6461,-5.6586,-5.6574,-5.6613,-5.6623,-5.6631,-5.6632,-5.6413,-5.6614,-5.6614,-5.6614,-5.6614,-5.6614,0,-5.4687,-5.4727,-5.4854,-5.4998,-5.5104,-5.5221,-5.5338,-5.5403,-5.5506,-5.5607,-5.5758,-5.5855,-5.6045,-5.6193,-5.6346,-5.6425,-5.6452,-5.6462,-5.6489,-5.6469,-5.6431,-5.6451,-5.6228,-5.6455,-5.6454,-5.6453,-5.6453,-5.6452,-5.4519,-5.4626,-5.4789,-5.4871,-5.4949,-5.5081,-5.5171,-5.5255,-5.5346,-5.5503,-5.5585,-5.5735,-5.5859,-5.6093,-5.6194,-5.6337,-5.6352,-5.6432,-5.6373,-5.635,-5.6351,-5.6342,-5.6353,-5.644,-5.6442,-5.6443,-5.6444,0,-5.4419,-5.4509,-5.4692,-5.4844,-5.4886,-5.4994,-5.5124,-5.5224,-5.5299,-5.5448,-5.5487,-5.5604,-5.5751,-5.5841,-5.6028,-5.607,-5.6248,-5.626,-5.6203,-5.621,-5.6289,-5.6279,-5.6536,-5.6573,-5.6399,-5.6401,-5.6402,0,-5.431,-5.4447,-5.4573,-5.4675,-5.4831,-5.4911,-5.5063,-5.5142,-5.5254,-5.5372,-5.5418,-5.5528,-5.5625,-5.5749,-5.5811,-5.5973,-5.6009,-5.605,-5.6065,-5.6045,-5.6039,-5.6093,-5.6084,-5.6096,-5.6095,-5.6094,-5.6093,0,-5.4141,-5.4372,-5.4538,-5.4605,-5.4781,-5.4857,-5.4934,-5.5061,-5.5149,-5.5278,-5.5336,-5.548,-5.5559,-5.567,-5.5748,-5.5705,-5.595,-5.5906,-5.5991,-5.5989,-5.6039,-5.6034,-5.6241,-5.6091,-5.609,-5.609,-5.609,0,-5.4067,-5.4195,-5.4423,-5.457,-5.4627,-5.4738,-5.4884,-5.5,-5.513,-5.5177,-5.5279,-5.5319,-5.547,-5.542,-5.5628,-5.5549,-5.5624,-5.5678,-5.5685,-5.5702,-5.5643,-5.5745,-5.5935,-5.5957,-5.572,-5.5717,-5.5714,0,-5.3848,-5.4103,-5.4174,-5.4389,-5.4519,-5.456,-5.4685,-5.4799,-5.4871,-5.4992,-5.5072,-5.521,-5.5192,-5.5247,-5.5339,-5.5426,-5.553,-5.5416,-5.5587,-5.5593,-5.5548,-5.5725,-5.5729,-5.5883,-5.5676,-5.568,-5.5683,0,-5.369,-5.3903,-5.3937,-5.4016,-5.418,-5.429,-5.4433,-5.4587,-5.4663,-5.4788,-5.4909,-5.5106,-5.5099,-5.5191,-5.5239,-5.533,-5.5462,-5.5311,-5.5315,-5.5333,-5.5666,-5.5669,-5.5694,-5.5475,-5.548,-5.5484,-5.5653,0,-5.3553,-5.3693,-5.3788,-5.3962,-5.4061,-5.4202,-5.4296,-5.4388,-5.4424,-5.4496,-5.4678,-5.4796,-5.4953,-5.5007,-5.5044,-5.5223,-5.5206,-5.5198,-5.5154,-5.527,-5.5328,-5.5352,-5.506,-5.5059,-5.5059,-5.5058,0,0,-5.332,-5.3522,-5.3596,-5.3737,-5.3825,-5.3865,-5.4007,-5.4098,-5.4279,-5.4339,-5.4315,-5.4609,-5.4706,-5.4916,-5.496,-5.5024,-5.5064,-5.502,-5.5215,-5.5232,-5.5248,-5.5308,-5.5332,-5.5057,-5.5057,-5.5057,-5.5057,0,-5.3289,-5.3387,-5.3527,-5.3623,-5.3769,-5.384,-5.3873,-5.4025,-5.4078,-5.4256,-5.4287,-5.4407,-5.464,-5.4739,-5.4819,-5.4998,-5.5014,-5.5039,-5.5103,-5.5206,-5.5223,-5.5239,-5.5302,-5.5324,-5.5055,-5.5055,-5.5055,0,-5.3148,-5.326,-5.3337,-5.3539,-5.3635,-5.3769,-5.3746,-5.3888,-5.3988,-5.4026,-5.4202,-5.428,-5.442,-5.4607,-5.4694,-5.4675,-5.4962,-5.4889,-5.4896,-5.4907,-5.5011,-5.5032,-5.5051,-5.48,-5.4799,-5.4798,0,0,-5.3108,-5.3239,-5.3385,-5.354,-5.3598,-5.3705,-5.3785,-5.383,-5.3954,-5.4004,-5.4105,-5.4225,-5.4361,-5.4449,-5.4582,-5.4774,-5.4809,-5.4854,-5.4866,-5.4875,-5.4891,-5.4998,-5.5019,-5.4793,-5.4793,-5.4792,0,0,-5.3089,-5.3264,-5.3278,-5.347,-5.3587,-5.3741,-5.3832,-5.3853,-5.3982,-5.3976,-5.4058,-5.4093,-5.427,-5.4346,-5.427,-5.4568,-5.4523,-5.4543,-5.4511,-5.4528,-5.454,-5.4517,-5.4263,0,0,0,0,0,-5.3106,-5.3242,-5.3253,-5.3299,-5.3555,-5.3734,-5.3768,-5.3838,-5.3804,-5.3875,-5.3962,-5.3974,-5.4322,-5.4256,-5.4301,-5.4384,-5.473,-5.4741,-5.4752,-5.4756,-5.4773,-5.4786,0,0,0,0,0,0,-5.3124,-5.3181,-5.325,-5.3408,-5.3466,-5.373,-5.3688,-5.3711,-5.3798,-5.3798,-5.3957,-5.398,-5.4043,-5.4238,-5.4277,-5.4355,-5.425,-5.4734,-5.4744,-5.4752,-5.4762,-5.4775,-5.4787,0,0,0,0,0,-5.314,-5.3185,-5.3577,-5.3406,-5.3457,-5.3583,-5.3684,-5.3703,-5.3771,-5.3907,-5.393,-5.3816,-5.4043,-5.4081,-5.4262,-5.4335,-5.4223,-5.4237,-5.4741,-5.4748,-5.4755,-5.4768,0,0,0,0,0,0,-5.3151,-5.3204,-5.3588,-5.3607,-5.336,-5.357,-5.3605,-5.3695,-5.3876,-5.39,-5.3769,-5.3767,-5.4045,-5.4074,-5.4103,-5.4325,-5.4201,-5.4216,-5.4225,-5.4746,-5.4752,-5.4757,0,0,0,0,0,0,-5.318,-5.3219,-5.3598,-5.3535,-5.3547,-5.3557,-5.3588,-5.3752,-5.3878,-5.3728,-5.3732,-5.3766,-5.4002,-5.407,-5.4093,-5.4346,-5.4184,-5.4198,-5.4208,-5.4214,-5.4751,-5.4756,0,0,0,0,0,0,-5.3197,-5.3231,-5.3531,-5.354,-5.355,-5.3757,-5.3703,-5.3961,-5.3823,-5.372,-5.3813,-5.3808,-5.3997,-5.4022,-5.4085,-5.4329,-5.4341,-5.4185,-5.4194,-5.4201,-5.4206,0,0,0,0,0,0,0,-5.3212,-5.2971,-5.3481,-5.3544,-5.3552,-5.3773,-5.3778,-5.3783,-5.3822,-5.3818,-5.3814,-5.381,-5.4104,-5.412,-5.4135,-5.4315,0,0,-5.4183,-5.419,0,0,0,0,0,0,0,0,-5.2959,-5.2968,-5.3482,-5.3486,-5.3489,-5.3774,-5.3778,-5.3782,-5.3822,-5.3818,-5.3815,-5.3812,-5.4109,-5.4121,-5.4134,0,0,0,0,0,0,0,0,0,0,0,0,0,0,0,-5.3482,-5.3485,0,-5.3775,-5.3778,-5.3781,-5.3821,-5.3819,-5.3816,-5.3813,-5.4112,-5.4122,-5.4133,0,0,0,0,0,0,0,0,0,0,0,0,0,0,0,0,0,0,0,0,0,0,0,0,0,0,0,0,0,0,0,0,0,0,0,0,0,0,0,0,0,0,0,0,0,0,0,0,0,0,0,0,0,0,0,0,0,0,0,0,0,0,0,0,0,0,0,0,0]}],[{"header":{"parameterUnit":"kt","parameterCategory":2,"dx":1,"dy":1,"la1":30.253999710083008,"la2":30.299108505249023,"lo1":-89.0895004272461,"lo2":-89.04439544677734,"nx":28,"ny":28,"refTime":"2022-10-22T21:00:00:Z","depth":0,"parameterNumber":2,"parameterNumberName":"V-component_of_WINDS"},"data":[6.4355,6.4497,6.45,6.4663,6.4692,6.4802,6.4842,6.4894,6.4935,6.5065,6.5141,6.5156,6.5195,6.5283,6.5363,6.5367,6.5398,6.5449,6.5444,6.5222,6.5191,6.5161,6.5126,6.5457,6.5457,6.567,6.5672,6.5674,6.4193,6.4223,6.4311,6.4396,6.4471,6.4424,6.4488,6.4552,6.4651,6.4703,6.4777,6.4892,6.4982,6.5004,6.509,6.5154,6.5134,6.5176,6.5168,6.5174,6.4939,6.4902,6.5191,6.5191,6.5191,6.5191,6.5191,6.519,6.3897,6.3983,6.4035,6.413,6.4173,6.423,6.4311,6.4328,6.4412,6.4503,6.4487,6.4599,6.4649,6.4751,6.4785,6.4871,6.4823,6.4868,6.4878,6.4888,6.4899,6.4585,6.4886,6.4885,6.4885,6.4884,6.4883,0,6.3678,6.3674,6.3758,6.3842,6.3911,6.3976,6.4035,6.4086,6.4073,6.4143,6.4244,6.4301,6.4414,6.4506,6.4587,6.4612,6.4564,6.4561,6.4591,6.4597,6.4593,6.4591,6.4203,6.455,6.4548,6.4546,6.4544,6.4543,6.3375,6.3477,6.3532,6.359,6.3623,6.3718,6.3774,6.3755,6.3815,6.3884,6.396,6.4054,6.4127,6.4286,6.4299,6.4383,6.4359,6.4491,6.4371,6.4375,6.4355,6.4347,6.4355,6.4513,6.4517,6.452,6.4522,0,6.3203,6.3204,6.3361,6.3405,6.3418,6.3525,6.3561,6.3645,6.3651,6.3767,6.3793,6.38,6.3898,6.389,6.4,6.3992,6.4163,6.4141,6.4145,6.4138,6.4252,6.4239,6.4631,6.468,6.4343,6.4346,6.4349,0,6.2942,6.3076,6.3068,6.3159,6.3307,6.3283,6.3429,6.3448,6.349,6.3582,6.3529,6.3616,6.3592,6.3677,6.3666,6.3805,6.3827,6.3827,6.3821,6.3828,6.3828,6.3853,6.3835,6.3811,6.3809,6.3807,6.3805,0,6.2668,6.2822,6.2971,6.3005,6.3063,6.3133,6.316,6.3207,6.3262,6.3331,6.3366,6.3449,6.3493,6.3558,6.3541,6.346,6.3713,6.3596,6.3711,6.3712,6.3762,6.3758,6.4114,6.3803,6.3802,6.3802,6.3801,0,6.2454,6.2527,6.2745,6.279,6.283,6.2929,6.3008,6.3091,6.3144,6.3143,6.3197,6.3158,6.3282,6.3167,6.3335,6.3233,6.3279,6.3291,6.3299,6.3304,6.3173,6.3368,6.3712,6.3745,6.3316,6.3312,6.3309,0,6.2138,6.2357,6.2337,6.2544,6.2643,6.2574,6.2683,6.2732,6.274,6.2823,6.2831,6.2926,6.2839,6.2866,6.2952,6.2962,6.3096,6.2945,6.3058,6.3063,6.3041,6.336,6.341,6.3639,6.3257,6.3263,6.3266,0,6.1891,6.1961,6.1999,6.2036,6.2097,6.218,6.2306,6.2395,6.2451,6.2513,6.2614,6.2751,6.2688,6.2735,6.2711,6.2801,6.3005,6.2721,6.2722,6.2768,6.3232,6.3278,6.3317,6.2969,6.2975,6.298,6.3226,0,6.1559,6.1669,6.1774,6.1858,6.1921,6.2051,6.2041,6.2108,6.2079,6.2082,6.2234,6.2271,6.2359,6.2402,6.2374,6.2583,6.2544,6.2477,6.2358,6.257,6.265,6.2683,6.224,6.2237,6.2234,6.2232,0,0,6.1253,6.141,6.1382,6.1503,6.1554,6.1479,6.1618,6.1658,6.1742,6.1777,6.1713,6.1908,6.1939,6.2123,6.2189,6.2227,6.2261,6.2187,6.2471,6.2497,6.2522,6.2608,6.2643,6.2226,6.2225,6.2224,6.2223,0,6.1128,6.1166,6.1305,6.1346,6.1406,6.1403,6.1437,6.1481,6.1489,6.1639,6.1571,6.1661,6.1818,6.1858,6.19,6.2167,6.2107,6.2196,6.2341,6.2441,6.2472,6.2499,6.259,6.2624,6.2216,6.2216,6.2217,0,6.0879,6.0913,6.0979,6.1093,6.1131,6.1235,6.111,6.1226,6.1302,6.1209,6.1357,6.1376,6.143,6.1607,6.1686,6.1628,6.1968,6.186,6.1878,6.1885,6.1981,6.2018,6.2051,6.1616,6.1614,6.1612,0,0,6.0771,6.0874,6.0901,6.1065,6.1094,6.1091,6.1145,6.112,6.1172,6.1192,6.1213,6.1264,6.1354,6.1414,6.1498,6.1696,6.1702,6.1787,6.1815,6.1838,6.1857,6.196,6.1996,6.1604,6.1604,6.1604,0,0,6.0718,6.0757,6.0718,6.0908,6.096,6.0996,6.1095,6.1047,6.1122,6.1105,6.1066,6.1078,6.1244,6.1263,6.1162,6.1454,6.1338,6.1362,6.1434,6.147,6.1498,6.1487,6.1034,0,0,0,0,0,6.0583,6.0753,6.0717,6.0747,6.0889,6.1016,6.1034,6.1007,6.0925,6.1004,6.1014,6.0948,6.12,6.1109,6.1139,6.125,6.1505,6.1522,6.1539,6.1678,6.1715,6.1747,0,0,0,0,0,0,6.0595,6.0632,6.0712,6.0756,6.0787,6.101,6.0865,6.0862,6.0915,6.0901,6.0948,6.0949,6.0927,6.1092,6.1119,6.1226,6.1025,6.1512,6.1527,6.154,6.1691,6.1721,6.1748,0,0,0,0,0,6.0604,6.0633,6.0868,6.0753,6.0781,6.0785,6.0858,6.0855,6.0895,6.0909,6.0908,6.087,6.0931,6.0951,6.1108,6.1214,6.1006,6.1016,6.1521,6.1533,6.1544,6.1706,0,0,0,0,0,0,6.061,6.063,6.0873,6.088,6.0687,6.0772,6.0784,6.0848,6.0899,6.09,6.0828,6.0816,6.0936,6.0951,6.0967,6.1212,6.0991,6.1001,6.1008,6.153,6.154,6.1548,0,0,0,0,0,0,6.0614,6.0637,6.0877,6.0795,6.0792,6.076,6.0771,6.09,6.0901,6.0814,6.0806,6.0822,6.091,6.0951,6.0963,6.1166,6.0979,6.0989,6.0996,6.1,6.1538,6.1545,0,0,0,0,0,0,6.0623,6.0643,6.0792,6.0791,6.0788,6.0867,6.0873,6.1019,6.0833,6.0813,6.0815,6.0807,6.0913,6.0925,6.0962,6.1159,6.1164,6.098,6.0986,6.0991,6.0994,0,0,0,0,0,0,0,6.063,6.0506,6.0831,6.0787,6.0785,6.0947,6.0949,6.0951,6.0831,6.0824,6.0817,6.081,6.0923,6.0934,6.0945,6.1154,0,0,6.0979,6.0983,0,0,0,0,0,0,0,0,6.0497,6.0503,6.0831,6.0832,6.0834,6.0948,6.0949,6.0951,6.083,6.0824,6.0818,6.0813,6.0926,6.0935,6.0943,0,0,0,0,0,0,0,0,0,0,0,0,0,0,0,6.0831,6.0832,0,6.0948,6.0949,6.0951,6.0829,6.0824,6.082,6.0815,6.0928,6.0935,6.0943,0,0,0,0,0,0,0,0,0,0,0,0,0,0,0,0,0,0,0,0,0,0,0,0,0,0,0,0,0,0,0,0,0,0,0,0,0,0,0,0,0,0,0,0,0,0,0,0,0,0,0,0,0,0,0,0,0,0,0,0,0,0,0,0,0,0,0,0,0]}]]]